sat.trackr.live / text

‹ back to catalog

STARLINK-30964

NORAD 58402 · 2023-180A

PAYLOAD ACTIVE UNKNOWN

§ Identity

Operator
Country
US
Launch date
2023-11-22
Launch site
AFETR
Launch vehicle
Mass (kg)
RCS (m²)

Purposes: comms

External: N2YO · Heavens-Above · Gunter

§ Orbital elements

Epoch: 2026-05-24T23:28:41.367648Z

Period
94.27 min
Inclination
43.0047°
Eccentricity
0.0001111
Mean motion
15.27570915 rev/d
Perigee alt
482.3 km
Apogee alt
483.8 km
Semi-major
6,861.2 km
B*
3.9405e-5
RAAN
341.6840°
Arg perigee
278.0894°
Mean anomaly
81.9832°
Rev number
13,929

§ Raw data

STARLINK-309641 58402U 23180A   26144.97825657  .00000822  00000+0  39405-4 0  99952 58402  43.0047 341.6840 0001111 278.0894  81.9832 15.27570915139294

JSON: /api/v1/satellites/58402 · /tle

For live sub-satellite position, see the globe view (requires WebGL).

§ Visibility from observer

Set your observer location to see the next 7 days of passes ≥ 10°. The values pass through the URL so the page stays shareable.

No JS? Fill the form by hand. The geolocation button needs JavaScript.